[[{"header":{"parameterUnit":"m.s-1","parameterCategory":1,"la1":30.2991,"la2":30.254,"lo1":-89.0895,"lo2":-89.0444,"dy":0.0017,"dx":0.0017,"nx":28,"ny":28,"refTime":"2025-03-06T09:00:00:Z","depth":0,"parameterNumber":2,"parameterNumberName":"U-component_of_WINDS"},"data":[0,0,0,0,0,0,0,0,0,0,0,0,0,0,0,0,0,0,0,0,0,0,0,0,0,0,0,0,0,0,0,0,0,0,0,0,0,0,0,0,0,0,0,0,0,0,0,0,0,0,0,0,0,0,0,0,0,0,3.3987,3.3989,0,3.4114,3.4115,3.4117,3.4097,3.4095,3.4093,3.4091,3.4222,3.4227,3.4233,0,0,0,0,0,0,0,0,0,0,0,0,0,3.373,3.3734,3.3987,3.3989,3.399,3.4114,3.4116,3.4117,3.4098,3.4095,3.4092,3.409,3.422,3.4227,3.4233,0,0,0,0,0,0,0,0,0,0,0,0,0,3.3848,3.3736,3.3987,3.3995,3.3997,3.4113,3.4116,3.4118,3.4098,3.4095,3.4092,3.4089,3.4218,3.4226,3.4234,3.435,0,0,3.4259,3.4263,0,0,0,0,0,0,0,0,3.3841,3.3857,3.3992,3.3995,3.3997,3.4086,3.4073,3.4196,3.4099,3.406,3.4091,3.4087,3.418,3.4191,3.4222,3.4356,3.4362,3.426,3.4265,3.4269,3.4271,0,0,0,0,0,0,0,3.3833,3.3851,3.4037,3.3994,3.3998,3.3993,3.4007,3.4096,3.4136,3.4063,3.4062,3.4077,3.418,3.4214,3.4225,3.4364,3.426,3.4267,3.4272,3.4276,3.4601,3.4605,0,0,0,0,0,0,3.3822,3.3845,3.4033,3.4041,3.3909,3.4001,3.4015,3.4061,3.4135,3.4144,3.408,3.4076,3.4201,3.4215,3.4229,3.4371,3.4269,3.4276,3.4281,3.4598,3.4602,3.4606,0,0,0,0,0,0,3.3816,3.3839,3.4028,3.3943,3.3966,3.4009,3.406,3.4065,3.4099,3.4148,3.4155,3.4107,3.4199,3.4218,3.432,3.4375,3.428,3.4288,3.4593,3.4599,3.4604,3.4654,0,0,0,0,0,0,3.3809,3.3837,3.3881,3.3944,3.3971,3.4117,3.4063,3.407,3.4113,3.4109,3.4175,3.4183,3.4198,3.4308,3.4329,3.4385,3.4294,3.4589,3.4596,3.4603,3.4648,3.4661,3.4672,0,0,0,0,0,3.38,3.389,3.3883,3.3906,3.4027,3.412,3.4136,3.4151,3.4117,3.4162,3.4194,3.4181,3.4366,3.4319,3.4342,3.4401,3.4585,3.4594,3.4602,3.4642,3.4658,3.4671,0,0,0,0,0,0,3.3833,3.3898,3.3892,3.4005,3.4057,3.4116,3.4173,3.4167,3.423,3.4224,3.4241,3.4256,3.436,3.4391,3.4338,3.4518,3.4471,3.4484,3.4494,3.4509,3.4521,3.4511,3.4301,0,0,0,0,0,3.3853,3.3923,3.3976,3.4071,3.4097,3.4131,3.4172,3.418,3.4235,3.4257,3.4296,3.435,3.4421,3.4467,3.4534,3.4652,3.4667,3.4704,3.4716,3.4726,3.4737,3.4803,3.4821,3.4634,3.4634,3.4633,0,0,3.3896,3.394,3.3983,3.4079,3.412,3.4192,3.415,3.4228,3.4282,3.4269,3.4368,3.4399,3.4461,3.4572,3.4623,3.4601,3.4792,3.4737,3.4744,3.475,3.4814,3.4831,3.4847,3.4639,3.4638,3.4637,0,0,3.4011,3.4051,3.4134,3.4177,3.424,3.4262,3.4282,3.4343,3.4363,3.4464,3.4455,3.452,3.4641,3.4686,3.4724,3.4857,3.4848,3.4879,3.4941,3.5006,3.502,3.5033,3.5082,3.5099,3.489,3.489,3.489,0,3.4056,3.4164,3.4178,3.4258,3.4301,3.4292,3.4377,3.4418,3.45,3.453,3.4504,3.4656,3.4697,3.4819,3.4852,3.4883,3.4907,3.4871,3.5017,3.503,3.5043,3.5089,3.5107,3.4894,3.4893,3.4893,3.4893,0,3.4217,3.4292,3.4352,3.4432,3.4481,3.4563,3.4591,3.4639,3.4643,3.4668,3.4771,3.482,3.4897,3.4927,3.4931,3.505,3.5035,3.5013,3.4966,3.5064,3.5107,3.5125,3.4899,3.4897,3.4896,3.4895,0,0,3.4355,3.4442,3.4464,3.45,3.457,3.4629,3.4711,3.4787,3.4829,3.4886,3.4956,3.5059,3.5039,3.5083,3.5092,3.5148,3.5252,3.512,3.5122,3.5143,3.5387,3.5403,3.5424,3.5246,3.5249,3.5252,3.5382,0,3.4477,3.4621,3.4637,3.4767,3.4837,3.483,3.4902,3.4953,3.4979,3.5043,3.5072,3.5145,3.5113,3.5139,3.5195,3.5227,3.5301,3.5218,3.5312,3.5315,3.5296,3.5446,3.5463,3.5584,3.5399,3.5402,3.5404,0,3.4638,3.47,3.4836,3.4897,3.4927,3.4991,3.5063,3.5124,3.5182,3.5197,3.5246,3.5249,3.5334,3.5284,3.5403,3.5347,3.5386,3.5408,3.5413,3.5422,3.5365,3.546,3.5622,3.5641,3.5431,3.5429,3.5427,0,3.4726,3.4844,3.494,3.4972,3.5045,3.509,3.5123,3.5178,3.5223,3.5286,3.5315,3.5387,3.5427,3.5483,3.5505,3.5466,3.5623,3.5574,3.5638,3.5638,3.5671,3.5669,3.5843,3.5697,3.5696,3.5696,3.5696,0,3.486,3.4944,3.4981,3.5041,3.5135,3.5153,3.5246,3.5276,3.5326,3.5392,3.5391,3.5453,3.5478,3.5545,3.5563,3.5659,3.5677,3.5692,3.5695,3.5692,3.569,3.5718,3.571,3.5701,3.57,3.5699,3.5698,0,3.4974,3.5002,3.5108,3.5168,3.5186,3.5253,3.5305,3.5363,3.5389,3.5472,3.5493,3.5533,3.5612,3.564,3.5735,3.5747,3.5859,3.5855,3.5839,3.584,3.5903,3.5896,3.61,3.6128,3.5963,3.5965,3.5966,0,3.5058,3.5122,3.5191,3.5235,3.5269,3.534,3.5386,3.5407,3.5455,3.5526,3.5576,3.5654,3.5717,3.5843,3.5882,3.5955,3.5953,3.602,3.5964,3.5959,3.5955,3.5951,3.5958,3.603,3.6032,3.6033,3.6034,0,3.5205,3.5215,3.5281,3.5353,3.5408,3.5465,3.552,3.5557,3.5586,3.564,3.572,3.577,3.5867,3.5945,3.602,3.6054,3.605,3.6052,3.607,3.6067,3.6055,3.6063,3.5868,3.6047,3.6046,3.6045,3.6044,3.6043,3.5306,3.5363,3.542,3.5494,3.5538,3.5591,3.5648,3.5681,3.5748,3.5829,3.5837,3.5924,3.5982,3.6082,3.612,3.6189,3.6171,3.6198,3.6204,3.6211,3.6216,3.6045,3.6203,3.6202,3.6202,3.6202,3.6202,0,3.5453,3.5489,3.5557,3.5635,3.5693,3.5684,3.5745,3.5795,3.5871,3.5925,3.5987,3.608,3.6156,3.62,3.6276,3.6323,3.6323,3.6342,3.6339,3.6347,3.6228,3.6204,3.6341,3.6341,3.6341,3.6341,3.6341,3.6341,3.5536,3.5632,3.565,3.5769,3.5805,3.5889,3.5925,3.5974,3.6017,3.6121,3.6183,3.6212,3.6263,3.6342,3.6412,3.6423,3.6451,3.6473,3.6482,3.637,3.6355,3.6342,3.6319,3.6479,3.6479,3.6596,3.6597,3.6598]},{"header":{"parameterUnit":"m.s-1","parameterCategory":1,"la1":30.2991,"la2":30.254,"lo1":-89.0895,"lo2":-89.0444,"dy":0.0017,"dx":0.0017,"nx":28,"ny":28,"refTime":"2025-03-06T09:00:00:Z","depth":0,"parameterNumber":3,"parameterNumberName":"V-component_of_WINDS"},"data":[0,0,0,0,0,0,0,0,0,0,0,0,0,0,0,0,0,0,0,0,0,0,0,0,0,0,0,0,0,0,0,0,0,0,0,0,0,0,0,0,0,0,0,0,0,0,0,0,0,0,0,0,0,0,0,0,0,0,-4.3913,-4.3915,0,-4.4096,-4.4098,-4.41,-4.4079,-4.4076,-4.4073,-4.407,-4.4259,-4.4266,-4.4274,0,0,0,0,0,0,0,0,0,0,0,0,0,-4.3548,-4.3555,-4.3913,-4.3915,-4.3918,-4.4095,-4.4098,-4.41,-4.4079,-4.4076,-4.4072,-4.4069,-4.4256,-4.4266,-4.4275,0,0,0,0,0,0,0,0,0,0,0,0,0,-4.3716,-4.3557,-4.3913,-4.3928,-4.3932,-4.4095,-4.4098,-4.4101,-4.408,-4.4075,-4.4071,-4.4067,-4.4253,-4.4265,-4.4276,-4.4436,0,0,-4.4312,-4.4317,0,0,0,0,0,0,0,0,-4.3707,-4.373,-4.3924,-4.3928,-4.3931,-4.406,-4.4039,-4.4214,-4.4081,-4.4024,-4.407,-4.4065,-4.4196,-4.4212,-4.4256,-4.4445,-4.4453,-4.4313,-4.432,-4.4325,-4.4328,0,0,0,0,0,0,0,-4.3695,-4.3722,-4.3985,-4.3927,-4.3931,-4.3927,-4.3946,-4.4072,-4.4133,-4.4028,-4.4027,-4.4049,-4.4198,-4.4245,-4.4261,-4.4456,-4.4312,-4.4323,-4.433,-4.4335,-4.4787,-4.4792,0,0,0,0,0,0,-4.3679,-4.3712,-4.398,-4.3991,-4.3806,-4.3937,-4.3958,-4.4023,-4.4131,-4.4143,-4.4053,-4.4047,-4.4228,-4.4247,-4.4267,-4.4463,-4.4325,-4.4336,-4.4342,-4.4782,-4.4788,-4.4793,0,0,0,0,0,0,-4.3672,-4.3703,-4.3972,-4.3851,-4.3885,-4.3948,-4.4021,-4.4029,-4.4077,-4.4149,-4.416,-4.409,-4.4225,-4.4251,-4.4395,-4.4469,-4.4341,-4.4352,-4.4776,-4.4784,-4.4791,-4.4855,0,0,0,0,0,0,-4.3661,-4.3701,-4.3762,-4.3853,-4.3892,-4.4096,-4.4026,-4.4036,-4.4097,-4.4091,-4.4187,-4.4199,-4.4223,-4.4377,-4.4406,-4.4483,-4.4361,-4.477,-4.4779,-4.4788,-4.4847,-4.4864,-4.4879,0,0,0,0,0,-4.3648,-4.3773,-4.3765,-4.3797,-4.3969,-4.41,-4.4123,-4.4148,-4.4103,-4.4165,-4.4212,-4.4196,-4.4456,-4.4392,-4.4425,-4.4506,-4.4765,-4.4777,-4.4788,-4.484,-4.4861,-4.4879,0,0,0,0,0,0,-4.3689,-4.3785,-4.3777,-4.3935,-4.4009,-4.4096,-4.4176,-4.4169,-4.4259,-4.425,-4.4278,-4.43,-4.4445,-4.449,-4.4417,-4.4667,-4.4605,-4.4623,-4.4633,-4.4654,-4.467,-4.4656,-4.437,0,0,0,0,0,-4.3716,-4.3814,-4.3893,-4.4024,-4.4062,-4.4112,-4.417,-4.4183,-4.4262,-4.4294,-4.4351,-4.4429,-4.4528,-4.4593,-4.4689,-4.4853,-4.4874,-4.4925,-4.4941,-4.4954,-4.497,-4.5061,-4.5085,-4.4831,-4.483,-4.483,0,0,-4.3774,-4.3838,-4.3898,-4.4034,-4.4093,-4.4195,-4.4139,-4.4249,-4.4325,-4.4311,-4.445,-4.4495,-4.4584,-4.4739,-4.481,-4.4781,-4.5045,-4.4968,-4.4978,-4.4987,-4.5075,-4.51,-4.5121,-4.4838,-4.4837,-4.4836,0,0,-4.3931,-4.3988,-4.4105,-4.4166,-4.4256,-4.4289,-4.4317,-4.4406,-4.4435,-4.4575,-4.4567,-4.4658,-4.4828,-4.4892,-4.4947,-4.5129,-4.5119,-4.5159,-4.5244,-4.5333,-4.5353,-4.5371,-4.5437,-4.5461,-4.5175,-4.5175,-4.5175,0,-4.3991,-4.4143,-4.4166,-4.4277,-4.4338,-4.4329,-4.4448,-4.4506,-4.4623,-4.4666,-4.4631,-4.4845,-4.4904,-4.5075,-4.5119,-4.5163,-4.5197,-4.5149,-4.5348,-4.5366,-4.5383,-4.5447,-4.5472,-4.5179,-4.5179,-4.5178,-4.5178,0,-4.4213,-4.4319,-4.4402,-4.4516,-4.4585,-4.47,-4.4741,-4.4809,-4.4816,-4.4853,-4.4997,-4.5067,-4.5177,-4.5218,-4.5226,-4.5391,-4.537,-4.5341,-4.5279,-4.5412,-4.5472,-4.5497,-4.5186,-4.5184,-4.5183,-4.5182,0,0,-4.4402,-4.4526,-4.4556,-4.4608,-4.4708,-4.4791,-4.4905,-4.5012,-4.5071,-4.5152,-4.525,-4.5395,-4.5369,-4.5431,-4.5446,-4.5524,-4.5666,-4.5486,-4.5489,-4.5519,-4.5854,-4.5876,-4.5904,-4.5659,-4.5664,-4.5667,-4.5847,0,-4.4569,-4.4771,-4.4796,-4.4976,-4.5075,-4.5068,-4.5168,-4.524,-4.5278,-4.5368,-4.541,-4.5513,-4.547,-4.5508,-4.5585,-4.5632,-4.5734,-4.562,-4.5752,-4.5756,-4.5731,-4.5935,-4.5959,-4.6125,-4.5871,-4.5875,-4.5877,0,-4.4792,-4.488,-4.507,-4.5157,-4.5199,-4.5288,-4.5389,-4.5475,-4.5558,-4.558,-4.5649,-4.5655,-4.5774,-4.5706,-4.5872,-4.5794,-4.585,-4.5881,-4.5888,-4.5903,-4.5826,-4.5957,-4.6178,-4.6204,-4.5915,-4.5912,-4.5909,0,-4.4912,-4.5078,-4.5213,-4.5257,-4.5362,-4.5425,-4.5472,-4.555,-4.5613,-4.5701,-4.5743,-4.5844,-4.59,-4.5979,-4.6012,-4.5959,-4.6177,-4.6111,-4.62,-4.6199,-4.6247,-4.6244,-4.6482,-4.6281,-4.628,-4.628,-4.6279,0,-4.5098,-4.5215,-4.5269,-4.5352,-4.5483,-4.551,-4.564,-4.5684,-4.5754,-4.5846,-4.5846,-4.5934,-4.5971,-4.6065,-4.6091,-4.6226,-4.625,-4.6273,-4.6279,-4.6274,-4.6271,-4.6312,-4.6302,-4.6286,-4.6285,-4.6284,-4.6282,0,-4.5255,-4.5295,-4.5443,-4.5529,-4.5554,-4.5647,-4.5722,-4.5803,-4.584,-4.5957,-4.5986,-4.6044,-4.6155,-4.6195,-4.6329,-4.6347,-4.6503,-4.6499,-4.6476,-4.6477,-4.6565,-4.6556,-4.6838,-4.6877,-4.6648,-4.665,-4.6652,0,-4.5372,-4.5462,-4.5558,-4.562,-4.5668,-4.5768,-4.5833,-4.5863,-4.593,-4.6032,-4.6101,-4.6211,-4.63,-4.6477,-4.6532,-4.6635,-4.6634,-4.6725,-4.6649,-4.6642,-4.6637,-4.6632,-4.6642,-4.674,-4.6742,-4.6744,-4.6746,0,-4.5575,-4.5591,-4.5683,-4.5784,-4.5861,-4.5941,-4.602,-4.6071,-4.6113,-4.6189,-4.6301,-4.6371,-4.6508,-4.6617,-4.6723,-4.6772,-4.6767,-4.6769,-4.6796,-4.6792,-4.6776,-4.6788,-4.6516,-4.6763,-4.6761,-4.676,-4.6759,-4.6758,-4.5717,-4.5797,-4.5877,-4.5981,-4.6043,-4.6116,-4.6197,-4.6244,-4.6338,-4.6452,-4.6464,-4.6585,-4.6667,-4.6808,-4.6862,-4.6958,-4.6934,-4.6971,-4.6981,-4.6991,-4.6998,-4.6759,-4.6977,-4.6977,-4.6977,-4.6976,-4.6976,0,-4.5922,-4.5973,-4.6068,-4.6178,-4.626,-4.6246,-4.6332,-4.6402,-4.6509,-4.6585,-4.6673,-4.6803,-4.6909,-4.6972,-4.7079,-4.7144,-4.7145,-4.7171,-4.7168,-4.718,-4.7013,-4.698,-4.7169,-4.7169,-4.7169,-4.7169,-4.7169,-4.7169,-4.6038,-4.6173,-4.6199,-4.6365,-4.6416,-4.6534,-4.6585,-4.6653,-4.6714,-4.6859,-4.6947,-4.6987,-4.7059,-4.7171,-4.7268,-4.7284,-4.7324,-4.7354,-4.7367,-4.7211,-4.7191,-4.7172,-4.7142,-4.7362,-4.7362,-4.7526,-4.7528,-4.7529]}]]